Location: Igri�s
(42.2144°N, 0.4320°W)
Time: 13:38:38
(UTC+00:00)

Resurs 1-3 - Pass Details

Date: 13 August 2020
Orbit: 629 x 632 km, 97.9° (Epoch: 23 September)

Event Time Altitude Azimuth Distance (km) Brightness Sun altitude
Exits shadow 20:19:08 11° 167° (SSE) 1,971 5.7 -13.1°
Maximum altitude 20:23:25 87° 255° (WSW) 638 3.6 -13.7°
Drops below altitude 10° 20:27:50 10° 347° (NNW) 2,023 6.9 -14.4°
Sets 20:30:03 0° 347° (NNW) 2,936 7.8 -14.7°
